Starlink 31584

operational
NORAD ID: 59862 Int'l Des: 2024-098 Owner: SPXS Country: US Constellation: starlink
LEOCIRCULAR

Über Starlink 31584

Beschreibung wird geladen...

Live-Position

3D-Globus wird geladen...

Nächste Überflüge

Höhenverlauf

Altitude vs Time

uPlot chart will show altitude changes over time

Zweizeiliger Elementsatz

1 59862U 24098E 26034.20344453 -.00000348 00000-0 -31305-5 0 9997
2 59862 43.0011 112.6097 0000724 249.0787 110.9987 15.27584761 96575
Epoch: 3. Feb. 2026 • Age: 25 hours

Aktueller Status

Höhe 487.0 km
Geschwindigkeit 7.62 km/s
Subsatellitenpunkt -18.95°S, 137.18°W
Startdatum 24. Mai 2024
Alter 1.7 years
Typ internet

Technische Details

Klassifizierung Payload
Masse 730.00 kg
Trockenmasse 700.00 kg
Gesamtmasse 730.00 kg
Länge 0.30 m
Durchmesser 4.10 m
Spannweite 29.00 m
Form Box + pan
Hersteller SPXS
Bus-Typ Starlink V2M
Phasenstatus In Orbit
Besitzer/Staat SPXS/US

Große Konstellationen

Loading constellations...